Weather History for Dillon, MT

Change the Weather History Date:

Sunday, November 13, 2011

  Actual Average Record
Temperature  
Mean Temperature 35 °F 32 °F  
Max Temperature 43 °F 43 °F 67 °F (1999)
Min Temperature 27 °F 21 °F -23 °F (1959)
Degree Days  
Heating Degree Days 30    
Month to date heating degree days 455  
Since 1 July heating degree days 1253  
Cooling Degree Days 0    
Month to date cooling degree days 0  
Year to date cooling degree days 140  
Moisture  
Dew Point 15 °F    
Average Humidity 41    
Maximum Humidity 53    
Minimum Humidity 29    
Precipitation  
Precipitation 0.00 in 0.01 in 0.12 in (1958)
Month to date precipitation 0.20 0.18  
Year to date precipitation 8.36 10.11  
Snow  
Snow 0.00 in - - ()
Snow Depth 0.00 in    
Sea Level Pressure  
Sea Level Pressure 29.57 in    
Wind  
Wind Speed 17 mph (SW)    
Max Wind Speed 35 mph    
Max Gust Speed 44 mph    
Visibility 10 miles    
Events      
T = Trace of Precipitation, MM = Missing Value Source: NWS Daily Summary

Daily Weather History Graph

Daily Weather History Graph

Search for Another Location

Airport:

Trip Planner

Search our weather history database for the weather conditions in past years. The results will help you decide how hot, cold, wet, or windy it might be!

Date:

Astronomy

Nov. 13, 2011 Rise Set
Actual Time 7:25 AM MST 5:02 PM MST
Civil Twilight 6:53 AM MST 5:34 PM MST
Nautical Twilight 6:18 AM MST 6:10 PM MST
Astronomical Twilight 5:43 AM MST 6:44 PM MST
Moon 7:10 PM MST (11/13) 10:06 AM MST (11/13)
Length of Visible Light 10h 40m
Length of Day
9h 37m
Waning Gibbous, 92% of the Moon is Illuminated
Nov 13
Waning Gibbous
Nov 18
Last Quarter
Nov 24
New
Dec 2
First Quarter
Dec 10
Full

Hourly Weather History & Observations

Time (MST) Temp. Windchill Dew Point Humidity Pressure Visibility Wind Dir Wind Speed Gust Speed Precip Events Conditions
12:53 AM 32.0 °F 19.2 °F 15.1 °F 50% 29.58 in 10.0 mi SSW 23.0 mph - N/A   Overcast
1:53 AM 30.9 °F 19.8 °F 15.1 °F 52% 29.57 in 10.0 mi SSW 16.1 mph - N/A   Overcast
2:53 AM 30.9 °F 21.2 °F 16.0 °F 54% 29.56 in 10.0 mi South 12.7 mph - N/A   Overcast
3:53 AM 30.0 °F 21.1 °F 16.0 °F 56% 29.57 in 10.0 mi SSW 10.4 mph - N/A   Mostly Cloudy
4:53 AM 32.0 °F 19.8 °F 16.0 °F 52% 29.54 in 10.0 mi SSW 20.7 mph 26.5 mph N/A   Overcast
5:53 AM 34.0 °F 23.8 °F 17.1 °F 50% 29.52 in 10.0 mi SW 16.1 mph 27.6 mph N/A   Overcast
6:53 AM 34.0 °F 23.8 °F 18.0 °F 52% 29.52 in 10.0 mi SSW 16.1 mph 26.5 mph N/A   Overcast
7:53 AM 34.0 °F 25.0 °F 17.1 °F 50% 29.54 in 10.0 mi WSW 12.7 mph - N/A   Overcast
8:53 AM 37.0 °F 25.9 °F 17.1 °F 44% 29.52 in 10.0 mi WSW 23.0 mph 34.5 mph N/A   Overcast
9:53 AM 37.9 °F 28.2 °F 17.1 °F 43% 29.53 in 10.0 mi SW 18.4 mph 28.8 mph N/A   Overcast
10:53 AM 39.0 °F 28.3 °F 17.1 °F 41% 29.52 in 10.0 mi WSW 24.2 mph 33.4 mph N/A   Overcast
11:53 AM 41.0 °F 29.8 °F 14.0 °F 33% 29.49 in 10.0 mi WSW 29.9 mph 35.7 mph N/A   Mostly Cloudy
12:53 PM 39.9 °F 30.0 °F 14.0 °F 35% 29.50 in 10.0 mi WSW 21.9 mph 32.2 mph N/A   Overcast
1:53 PM 39.0 °F 27.4 °F 12.0 °F 33% 29.52 in 10.0 mi WSW 28.8 mph 42.6 mph N/A   Mostly Cloudy
2:53 PM 42.1 °F 31.9 °F 12.0 °F 29% 29.54 in 10.0 mi West 26.5 mph 33.4 mph N/A   Mostly Cloudy
3:53 PM 39.0 °F 28.0 °F 12.9 °F 34% 29.57 in 10.0 mi West 25.3 mph 38.0 mph N/A   Clear
4:53 PM 36.0 °F 23.9 °F 12.9 °F 39% 29.59 in 10.0 mi WSW 25.3 mph 34.5 mph N/A   Clear
5:53 PM 33.1 °F 22.2 °F 12.9 °F 43% 29.61 in 10.0 mi West 17.3 mph - N/A   Clear
6:53 PM 32.0 °F 22.5 °F 12.9 °F 45% 29.66 in 10.0 mi WSW 12.7 mph 19.6 mph N/A   Clear
7:53 PM 32.0 °F 25.6 °F 14.0 °F 48% 29.68 in 10.0 mi WSW 6.9 mph - N/A   Scattered Clouds
8:53 PM 30.9 °F 23.5 °F 12.9 °F 47% 29.67 in 10.0 mi WSW 8.1 mph 18.4 mph N/A   Clear
9:53 PM 32.0 °F 24.2 °F 14.0 °F 48% 29.66 in 10.0 mi SW 9.2 mph - N/A   Partly Cloudy
10:53 PM 30.9 °F 22.8 °F 16.0 °F 54% 29.66 in 10.0 mi SSW 9.2 mph - N/A   Mostly Cloudy
11:53 PM 28.9 °F 23.9 °F 16.0 °F 58% 29.65 in 10.0 mi South 4.6 mph - N/A   Scattered Clouds